#timestamp,LO_Frequency,Hit,StdDev 
1598551215.6,286047002.3,N
1598551235.4,286047001.6,N
1598551255.2,286046998.6,N
1598551275.1,286046999.3,N
1598551276.0,286046999.3,N
1598551295.8,286046999.6,N
1598551315.7,286046997.3,N
1598551335.5,286046996.8,N
1598551355.3,286046995.2,N
1598551375.2,286046997.6,N
1598551395.0,286046996.2,N
1598551395.9,286046996.2,N
1598551415.8,286046993.4,Y
1598551435.6,286046996.3,P
1598551455.4,286046995.6,P
1598551475.3,286046995.0,P
1598551495.1,286046995.5,N
1598551515.8,286046996.3,N
1598551535.7,286046995.6,Y
1598551555.5,286047001.1,P
1598551575.4,286046999.0,N
1598551595.2,286046998.2,N
1598551615.0,286046998.8,N
1598551615.9,286046998.8,N
1598551635.8,286046998.2,N
1598551655.6,286046998.1,N
1598551675.4,286046998.5,N
1598551695.3,286046998.2,N
1598551715.1,286047001.3,N
1598551735.9,286047002.9,N
1598551755.7,286047001.3,N
1598551775.5,286047001.9,N
1598551795.4,286047001.9,N
1598551815.2,286046999.8,N
1598551835.1,286047001.2,N
1598551836.0,286047001.2,N
1598551855.8,286047000.7,N
1598551875.6,286047000.7,N
1598551895.5,286047000.3,N
1598551915.3,286047000.6,N
1598551935.1,286047002.5,N
1598551955.9,286047004.2,N
1598551975.7,286047007.2,Y
1598551995.6,286047009.0,P
1598552015.4,286047007.9,N
1598552035.2,286047007.9,N
1598552055.1,286047011.8,Y
1598552056.0,286047011.8,P
1598552075.8,286047008.2,N
1598552095.7,286047011.0,P
1598552115.5,286047012.3,Y
1598552135.3,286047007.0,P
1598552155.2,286047005.3,P
1598552175.0,286047001.7,N
1598552175.9,286047001.7,N
1598552195.7,286047004.3,N
1598552215.6,286047001.5,N
1598552235.4,286047000.3,N
1598552255.3,286047001.3,N
1598552275.1,286047003.3,N
1598552276.0,286047003.3,N
1598552295.8,286047003.7,N
1598552315.7,286047004.0,N
1598552335.5,286047004.0,N
1598552355.4,286047007.1,Y
1598552375.2,286047001.7,P
1598552395.0,286047001.6,N
1598552395.9,286047001.6,N
1598552415.8,286047001.9,N
1598552435.6,286047003.8,Y
1598552455.4,286047002.0,P
1598552475.3,286046999.8,P
1598552495.1,286047002.1,N
1598552515.9,286047002.1,N
1598552535.7,286047004.1,Y
1598552555.5,286047002.0,P
1598552575.4,286047003.9,P
1598552595.2,286047003.0,N
1598552615.1,286047004.2,Y
1598552616.0,286047004.2,P
1598552635.8,286047002.2,N
1598552655.6,286047005.6,P
1598552675.5,286047014.7,Y
1598552695.3,286047015.6,P
1598552715.2,286047011.1,N
1598552735.9,286047014.0,N
1598552755.7,286047015.2,Y
1598552775.6,286047004.1,P
1598552795.4,286047004.1,N
1598552815.2,286047001.5,N
1598552835.1,286047004.3,N
1598552836.0,286047004.3,N
1598552855.8,286047001.7,N
1598552875.7,286047003.8,N
1598552895.5,286047011.9,Y
1598552915.3,286047000.1,P
1598552935.2,286047000.4,N
1598552955.0,286046998.5,N
1598552955.9,286046998.5,N
1598552975.8,286046998.2,N
1598552995.6,286047000.2,N
1598553015.4,286047004.0,N
1598553035.3,286047002.7,N
1598553055.1,286046998.8,N
1598553075.8,286046999.1,N
1598553095.7,286047000.4,N
1598553115.5,286047002.1,N
1598553135.4,286047000.3,N
1598553155.2,286047000.7,N
1598553175.0,286046998.7,N
1598553175.9,286046998.7,N
1598553195.8,286047000.7,N
1598553215.6,286047002.8,N
1598553235.4,286047001.9,N
1598553255.3,286047003.7,N
1598553275.1,286047000.7,N
1598553295.9,286047000.1,N
1598553315.7,286047002.6,N
1598553335.5,286047008.3,Y
1598553355.4,286047012.2,P
1598553375.2,286047014.0,N
1598553395.1,286047007.8,N
1598553396.0,286047007.8,N
1598553415.8,286047005.3,N
1598553435.6,286047004.3,N
1598553455.5,286046999.7,N
1598553475.3,286047002.6,N
1598553495.1,286047000.9,N
1598553515.9,286047002.3,N
1598553535.7,286047000.1,N
1598553555.6,286046998.6,N
1598553575.4,286046999.2,N
1598553595.2,286046999.4,N
1598553615.1,286046999.0,N
1598553616.0,286046999.0,N
1598553635.8,286047000.4,N
1598553655.6,286047000.4,N
1598553675.5,286047002.5,N
1598553695.3,286047006.9,N
1598553715.2,286047009.1,N
1598553735.9,286047008.8,N
1598553755.7,286047010.5,N
1598553775.6,286047008.6,N
1598553795.4,286047006.1,N
1598553815.3,286047006.8,N
1598553835.1,286047007.0,N
1598553836.0,286047007.0,N
1598553855.8,286047008.5,N
1598553875.7,286047009.6,N
1598553895.5,286047008.0,N
1598553915.3,286047010.5,N
1598553935.2,286047012.1,Y
1598553955.0,286047006.5,P
1598553955.9,286047006.5,P
1598553975.8,286047006.8,P
1598553995.6,286047007.1,Y
1598554015.4,286046998.8,P
1598554035.3,286047000.6,N
1598554055.1,286046999.3,N
1598554075.9,286046996.7,N
1598554095.7,286046998.9,N
1598554145.6,286047004.2,E
1598554155.5,286046998.5,N
1598554175.3,286046996.7,P
1598554195.2,286047000.0,N
1598554215.9,286047000.3,N
1598554235.7,286046998.5,N
1598554255.6,286047000.1,N
1598554275.4,286047004.1,Y
1598554295.3,286047004.4,P
1598554315.1,286047004.1,N
1598554316.0,286047004.1,N
1598554335.8,286047005.4,N
1598554355.7,286047007.7,Y
1598554375.5,286047007.0,P
1598554395.4,286047008.4,P
1598554415.2,286047006.7,P
1598554435.0,286047006.5,Y
1598554435.9,286047006.5,P
1598554455.8,286046998.6,P
1598554475.6,286046998.2,N
1598554495.5,286046999.3,N
1598554515.3,286046998.8,N
1598554535.1,286046998.2,N
1598554555.9,286047004.0,N
1598554575.7,286047006.0,N
1598554595.5,286047008.1,N
1598554615.4,286047010.8,N
1598554635.2,286047009.4,N
1598554655.1,286047011.2,N
1598554656.0,286047011.2,N
1598554675.8,286047013.8,N
1598554695.6,286047016.4,Y
1598554715.5,286047009.5,P
1598554735.3,286047011.4,P
1598554755.1,286047011.4,P
1598554775.9,286047013.0,Y
1598554795.7,286047004.6,P
